When you browse on this site, cookies collect data to enhance your experience and personalize the content and advertising you see.
Visit our Privacy Policy to learn more. By continuing to use the site, you agree to this use of cookies and data.
  • Em Portugal
  • Lista de países
  • Para 7 dias
  • Temperatura da água
  • Mapas de satélite
  • Mapa do tempo
  • Widgets de tempo
  • user-avatar
    Iniciar Sessão

    Previsão horária em Prutz

    Hoje, 21 Maio, Terça-feira

    Tempo Temperatura Precipitação Vento Pressão Humidade
    00:00 +4°C° 1.9 mm 2 m/s 626 mmHg 96%
    01:00 +5°C° 0 mm 2 m/s 626 mmHg 98%
    02:00 +5°C° 1.2 mm 2 m/s 626 mmHg 97%
    03:00 +5°C° 1.2 mm 2 m/s 626 mmHg 97%
    04:00 +4°C° 1.2 mm 2 m/s 626 mmHg 96%
    05:00 +5°C° 0.7 mm 2 m/s 626 mmHg 97%
    06:00 +5°C° 0.7 mm 2 m/s 626 mmHg 97%
    07:00 +4°C° 0 mm 3 m/s 627 mmHg 98%
    08:00 +5°C° 0.7 mm 2 m/s 627 mmHg 97%
    09:00 +6°C° 0.7 mm 2 m/s 627 mmHg 97%
    10:00 +6°C° 0.7 mm 2 m/s 627 mmHg 96%
    11:00 +6°C° 0.6 mm 2 m/s 628 mmHg 96%
    12:00 +6°C° 0.6 mm 2 m/s 628 mmHg 95%
    13:00 +7°C° 0 mm 1 m/s 628 mmHg 95%
    14:00 +6°C° 0.8 mm 2 m/s 629 mmHg 95%
    15:00 +6°C° 0.8 mm 2 m/s 629 mmHg 96%
    16:00 +6°C° 0.8 mm 2 m/s 629 mmHg 97%
    17:00 +6°C° 0.7 mm 2 m/s 629 mmHg 97%
    18:00 +6°C° 0.7 mm 2 m/s 629 mmHg 98%
    19:00 +5°C° 0.7 mm 2 m/s 630 mmHg 98%
    20:00 +6°C° 0.7 mm 1 m/s 630 mmHg 97%
    21:00 +6°C° 0.7 mm 1 m/s 630 mmHg 97%
    22:00 +5°C° 0.7 mm 1 m/s 631 mmHg 96%
    23:00 +5°C° 0.3 mm 1 m/s 631 mmHg 96%

    Amanhã, 22 Maio, Quarta-feira

    Tempo Temperatura Precipitação Vento Pressão Humidade
    00:00 +5°C° 0.3 mm 1 m/s 631 mmHg 96%
    01:00 +5°C° 0.3 mm 1 m/s 631 mmHg 96%
    02:00 +4°C° 0.1 mm 1 m/s 631 mmHg 96%
    03:00 +4°C° 0.1 mm 1 m/s 631 mmHg 96%
    04:00 +4°C° 0.1 mm 1 m/s 631 mmHg 96%
    05:00 +5°C° 0 mm 1 m/s 631 mmHg 96%
    06:00 +5°C° 0 mm 1 m/s 632 mmHg 96%
    07:00 +6°C° 0 mm 1 m/s 632 mmHg 95%
    08:00 +7°C° 0.1 mm 1 m/s 632 mmHg 93%
    09:00 +7°C° 0.1 mm 2 m/s 632 mmHg 92%
    10:00 +8°C° 0.1 mm 2 m/s 633 mmHg 90%
    11:00 +8°C° 0.2 mm 2 m/s 633 mmHg 88%
    12:00 +9°C° 0.2 mm 2 m/s 633 mmHg 86%
    13:00 +9°C° 0.2 mm 2 m/s 633 mmHg 84%
    14:00 +9°C° 0.3 mm 2 m/s 633 mmHg 85%
    15:00 +9°C° 0.3 mm 2 m/s 633 mmHg 87%
    16:00 +8°C° 0.3 mm 2 m/s 633 mmHg 88%
    17:00 +8°C° 0.2 mm 2 m/s 633 mmHg 90%
    18:00 +7°C° 0.2 mm 2 m/s 633 mmHg 92%
    19:00 +7°C° 0.2 mm 2 m/s 633 mmHg 95%
    20:00 +7°C° 0.1 mm 1 m/s 633 mmHg 96%
    21:00 +6°C° 0.1 mm 1 m/s 633 mmHg 97%
    22:00 +6°C° 0.1 mm 1 m/s 634 mmHg 98%
    23:00 +5°C° 0 mm 1 m/s 634 mmHg 98%

    Depois de amanhã, 23 Maio, Quinta-feira

    Tempo Temperatura Precipitação Vento Pressão Humidade
    00:00 +5°C° 0 mm 1 m/s 634 mmHg 97%
    01:00 +4°C° 0 mm 0 m/s 634 mmHg 97%
    02:00 +3°C° 0 mm 0 m/s 633 mmHg 96%
    03:00 +3°C° 0 mm 0 m/s 633 mmHg 95%
    04:00 +2°C° 0 mm 0 m/s 633 mmHg 95%
    05:00 +4°C° 0 mm 0 m/s 633 mmHg 92%
    06:00 +5°C° 0 mm 0 m/s 634 mmHg 90%
    07:00 +7°C° 0 mm 1 m/s 634 mmHg 88%
    08:00 +8°C° 0 mm 1 m/s 634 mmHg 83%
    09:00 +10°C° 0 mm 1 m/s 635 mmHg 78%
    10:00 +11°C° 0 mm 1 m/s 635 mmHg 73%
    11:00 +12°C° 0 mm 1 m/s 635 mmHg 69%
    12:00 +13°C° 0 mm 2 m/s 635 mmHg 65%
    13:00 +14°C° 0 mm 2 m/s 635 mmHg 61%
    14:00 +14°C° 0 mm 2 m/s 635 mmHg 61%
    15:00 +14°C° 0 mm 2 m/s 635 mmHg 62%
    16:00 +14°C° 0 mm 2 m/s 634 mmHg 62%
    17:00 +12°C° 0 mm 2 m/s 634 mmHg 68%
    18:00 +10°C° 0 mm 2 m/s 633 mmHg 74%
    19:00 +8°C° 0 mm 2 m/s 633 mmHg 81%
    20:00 +8°C° 0 mm 1 m/s 633 mmHg 85%
    21:00 +6°C° 0 mm 1 m/s 632 mmHg 89%
    22:00 +4°C° 0 mm 1 m/s 632 mmHg 93%
    23:00 +4°C° 0 mm 1 m/s 632 mmHg 92%

    24 Maio, Sexta-feira

    Tempo Temperatura Precipitação Vento Pressão Humidade
    00:00 +4°C° 0 mm 1 m/s 632 mmHg 91%
    01:00 +4°C° 0 mm 1 m/s 632 mmHg 91%
    02:00 +4°C° 0 mm 1 m/s 632 mmHg 89%
    03:00 +4°C° 0 mm 1 m/s 632 mmHg 88%
    04:00 +4°C° 0 mm 1 m/s 632 mmHg 87%
    05:00 +6°C° 0 mm 1 m/s 632 mmHg 81%
    06:00 +7°C° 0 mm 0 m/s 633 mmHg 76%
    07:00 +9°C° 0 mm 0 m/s 633 mmHg 71%
    08:00 +10°C° 0 mm 0 m/s 634 mmHg 66%
    09:00 +13°C° 0 mm 1 m/s 634 mmHg 61%
    10:00 +14°C° 0 mm 1 m/s 634 mmHg 57%
    11:00 +14°C° 0 mm 1 m/s 634 mmHg 57%
    12:00 +15°C° 0 mm 2 m/s 634 mmHg 57%
    13:00 +15°C° 0 mm 2 m/s 634 mmHg 58%
    14:00 +15°C° 0.2 mm 2 m/s 634 mmHg 61%
    15:00 +14°C° 0.2 mm 2 m/s 633 mmHg 65%
    16:00 +14°C° 0.2 mm 2 m/s 633 mmHg 69%
    17:00 +13°C° 0.4 mm 2 m/s 633 mmHg 75%
    18:00 +12°C° 0.4 mm 2 m/s 632 mmHg 81%
    19:00 +9°C° 0.4 mm 2 m/s 632 mmHg 88%
    20:00 +9°C° 0.3 mm 1 m/s 632 mmHg 90%
    21:00 +8°C° 0.3 mm 1 m/s 632 mmHg 93%
    22:00 +7°C° 0.3 mm 1 m/s 632 mmHg 96%
    23:00 +6°C° 0.2 mm 0 m/s 632 mmHg 96%

    25 Maio, Sábado

    Tempo Temperatura Precipitação Vento Pressão Humidade
    00:00 +6°C° 0.2 mm 0 m/s 632 mmHg 96%
    01:00 +6°C° 0.2 mm 0 m/s 631 mmHg 95%
    02:00 +6°C° 0.2 mm 0 m/s 631 mmHg 95%
    03:00 +5°C° 0.2 mm 0 m/s 631 mmHg 95%
    04:00 +5°C° 0.2 mm 0 m/s 631 mmHg 95%
    05:00 +7°C° 0.3 mm 0 m/s 632 mmHg 91%
    06:00 +8°C° 0.3 mm 0 m/s 632 mmHg 87%
    07:00 +9°C° 0.3 mm 0 m/s 633 mmHg 84%
    08:00 +11°C° 0.4 mm 1 m/s 633 mmHg 80%
    09:00 +12°C° 0.4 mm 1 m/s 633 mmHg 77%
    10:00 +12°C° 0.4 mm 1 m/s 634 mmHg 74%
    11:00 +13°C° 0.7 mm 1 m/s 634 mmHg 74%
    12:00 +13°C° 0.7 mm 1 m/s 634 mmHg 74%
    13:00 +13°C° 0.7 mm 1 m/s 634 mmHg 74%
    14:00 +13°C° 0.7 mm 1 m/s 633 mmHg 76%
    15:00 +13°C° 0.7 mm 1 m/s 633 mmHg 77%
    16:00 +13°C° 0.7 mm 1 m/s 633 mmHg 79%
    17:00 +12°C° 0.5 mm 1 m/s 633 mmHg 83%
    18:00 +11°C° 0.5 mm 1 m/s 633 mmHg 87%
    19:00 +11°C° 0.5 mm 1 m/s 633 mmHg 91%
    20:00 +10°C° 0.3 mm 1 m/s 633 mmHg 93%
    21:00 +9°C° 0.3 mm 1 m/s 633 mmHg 95%
    22:00 +8°C° 0.3 mm 1 m/s 633 mmHg 97%
    23:00 +8°C° 0.2 mm 1 m/s 633 mmHg 97%

    26 Maio, Domingo

    Tempo Temperatura Precipitação Vento Pressão Humidade
    00:00 +8°C° 0.2 mm 1 m/s 633 mmHg 97%
    01:00 +7°C° 0.2 mm 1 m/s 633 mmHg 97%
    02:00 +7°C° 0.1 mm 1 m/s 633 mmHg 97%
    03:00 +7°C° 0.1 mm 1 m/s 632 mmHg 97%
    04:00 +7°C° 0.1 mm 1 m/s 632 mmHg 97%
    05:00 +8°C° 0.1 mm 1 m/s 633 mmHg 94%
    06:00 +9°C° 0.1 mm 1 m/s 633 mmHg 91%
    07:00 +9°C° 0.1 mm 1 m/s 633 mmHg 89%
    08:00 +11°C° 0.1 mm 1 m/s 634 mmHg 82%
    09:00 +12°C° 0.1 mm 1 m/s 634 mmHg 75%
    10:00 +13°C° 0.1 mm 2 m/s 635 mmHg 68%
    11:00 +14°C° 0.1 mm 2 m/s 635 mmHg 66%
    12:00 +14°C° 0.1 mm 2 m/s 635 mmHg 64%
    13:00 +15°C° 0.1 mm 2 m/s 635 mmHg 62%
    14:00 +15°C° 0.2 mm 2 m/s 634 mmHg 64%
    15:00 +15°C° 0.2 mm 2 m/s 634 mmHg 65%
    16:00 +14°C° 0.2 mm 2 m/s 634 mmHg 67%
    17:00 +13°C° 0.2 mm 2 m/s 634 mmHg 73%
    18:00 +12°C° 0.2 mm 2 m/s 634 mmHg 78%
    19:00 +10°C° 0.2 mm 2 m/s 634 mmHg 84%
    20:00 +9°C° 0.1 mm 2 m/s 634 mmHg 89%
    21:00 +9°C° 0.1 mm 1 m/s 634 mmHg 93%
    22:00 +8°C° 0.1 mm 1 m/s 634 mmHg 97%
    23:00 +8°C° 0.1 mm 1 m/s 634 mmHg 97%
    Mostrar mais